DW7229 Weather Reports


time (UTC)temp
C
wind
direction
speed
KPH
gust
KPH
rain 1hr
cm
rain 24hr
cm
rain mn
cm
humidity
%
barometer
mb
20260903003019 18 0.0 0.0 0.00 25.15 0.00 82 1019.7
20260903002036 18 0.0 0.0 0.00 25.15 0.00 81 1019.6
20260903001025 18 0.0 0.0 0.00 25.15 0.00 81 1019.8
20260903000028 18 0.0 0.0 0.00 25.15 0.00 81 1020.0
20260902235032 18 0.0 0.0 0.00 25.15 0.00 81 1020.2
20260902234017 18 0.0 0.0 0.00 25.15 0.00 80 1020.4
20260902233020 18 0.0 0.0 0.00 25.15 0.00 79 1020.5
20260902232024 18 0.0 0.0 0.00 25.15 0.00 79 1020.6
20260902231027 18 0.0 0.0 0.00 25.15 0.00 78 1020.5
20260902230030 19 0.0 0.0 0.00 25.15 0.00 77 1020.7
20260902225016 19 0.0 0.0 0.00 25.15 0.00 77 1020.5
20260902224019 20 0.0 0.0 0.00 25.15 0.00 76 1020.8
20260902223042 20 0.0 0.0 0.00 25.15 0.00 76 1020.8
20260902222025 20 0.0 0.0 0.00 25.15 0.00 75 1020.6
20260902221029 20 0.0 0.0 0.00 25.15 0.00 74 1020.9
20260902220032 21 0.0 0.0 0.00 25.15 0.00 73 1021.0
20260902215017 21 0.0 0.0 0.00 25.15 0.00 72 1020.8
20260902214041 21 0.0 0.0 0.00 25.15 0.00 71 1020.7
20260902213024 22 0.0 0.0 0.00 25.15 0.00 70 1020.6
20260902212028 22 0.0 0.0 0.00 25.15 0.00 70 1020.4
20260902211025 22 0.0 0.0 0.00 25.15 0.00 69 1020.6
20260902210056 22 0.0 0.0 0.00 25.15 0.00 69 1020.5
20260902205059 22 0.0 0.0 0.00 25.15 0.00 69 1020.7
20260902204016 21 0.0 0.0 0.00 25.15 0.00 71 1020.9
20260902203106 22 0.0 0.0 0.00 25.15 0.00 70 1021.0
20260902202029 21 0.0 0.0 0.00 25.15 0.00 71 1021.0
20260902201032 21 0.0 0.0 0.00 25.15 0.00 73 1021.4
20260902200017 21 0.0 0.0 0.00 25.15 0.00 72 1021.4
20260902195041 21 0.0 0.0 0.00 25.15 0.00 72 1021.4
20260902194024 21 0.0 0.0 0.00 25.15 0.00 71 1021.5
20260902193027 22 0.0 0.0 0.00 25.15 0.00 70 1021.6
20260902192031 21 0.0 0.0 0.00 25.15 0.00 72 1021.7
20260902191016 21 0.0 0.0 0.00 25.15 0.00 71 1021.6
20260902190039 22 0.0 0.0 0.00 25.15 0.00 71 1021.3
20260902185023 22 0.0 0.0 0.00 25.15 0.00 71 1021.4
20260902184026 22 0.0 0.0 0.00 25.15 0.00 71 1021.4
20260902183029 21 0.0 0.0 0.00 25.15 0.00 72 1021.4
20260902182053 21 0.0 0.0 0.00 25.15 0.00 73 1021.4
20260902181018 21 0.0 0.0 0.00 25.15 0.00 73 1021.6
20260902180021 20 0.0 0.0 0.00 25.15 0.00 75 1021.6
20260902175045 21 0.0 0.0 0.00 25.15 0.00 75 1021.6
20260902174028 21 0.0 0.0 0.00 25.15 0.00 74 1021.7
20260902173025 21 0.0 0.0 0.00 25.15 0.00 74 1021.7
20260902172016 21 0.0 0.0 0.00 25.15 0.00 74 1021.8
20260902171019 21 0.0 0.0 0.00 25.15 0.00 74 1021.6
20260902170017 21 0.0 0.0 0.00 25.15 0.00 74 1021.7
20260902165026 21 0.0 0.0 0.00 25.15 0.00 74 1021.6
20260902164029 21 0.0 0.0 0.00 25.15 0.00 75 1021.8
20260902163015 20 0.0 0.0 0.00 25.15 0.00 75 1021.9
20260902162018 20 0.0 0.0 0.00 25.15 0.00 75 1022.0
20260902161021 21 0.0 0.0 0.00 25.15 0.00 74 1022.1
20260902160025 21 0.0 0.0 0.00 25.15 0.00 72 1022.2
20260902155028 21 0.0 0.0 0.00 25.15 0.00 73 1022.3
20260902154031 21 0.0 0.0 0.00 25.15 0.00 74 1022.4
20260902153017 21 0.0 0.0 0.00 25.15 0.00 75 1022.5
20260902152020 20 0.0 0.0 0.00 25.15 0.00 77 1022.6
20260902151023 20 0.0 0.0 0.00 25.15 0.00 76 1022.7
20260902150107 20 0.0 0.0 0.00 25.15 0.00 79 1022.6
20260902145029 20 0.0 0.0 0.00 25.15 0.00 79 1022.3
20260902144015 20 0.0 0.0 0.00 25.15 0.00 80 1022.1
20260902143018 20 0.0 0.0 0.00 25.15 0.00 80 1022.0
20260902142021 19 0.0 0.0 0.00 25.15 0.00 83 1021.8
20260902141025 18 0.0 0.0 0.00 25.15 0.00 86 1021.9
20260902140209 18 0.0 0.0 0.00 25.15 0.00 86 1021.6
20260902135025 18 0.0 0.0 0.00 25.15 0.00 88 1021.7
20260902134016 18 0.0 0.0 0.00 25.15 0.00 88 1021.7
20260902133020 18 0.0 0.0 0.00 25.15 0.00 89 1021.7
20260902132017 18 0.0 0.0 0.00 25.15 0.00 89 1021.9
20260902131046 18 0.0 0.0 0.00 25.15 0.00 90 1021.8
20260902130030 18 0.0 0.0 0.00 25.15 0.00 93 1021.8
20260902125015 17 0.0 0.0 0.00 25.15 0.00 95 1021.9
20260902124019 17 0.0 0.0 0.00 25.15 0.00 98 1022.0
20260902123022 17 0.0 0.0 0.00 25.15 0.00 98 1022.0
20260902122025 17 0.0 0.0 0.00 25.15 0.00 98 1022.0
20260902121048 17 0.0 0.0 0.00 25.15 0.00 98 1022.1
20260902120031 17 0.0 0.0 0.00 25.15 0.00 98 1022.0
20260902115017 17 0.0 0.0 0.00 25.15 0.00 98 1022.1
20260902114020 17 0.0 0.0 0.00 25.15 0.00 98 1022.0
20260902113044 17 0.0 0.0 0.00 25.15 0.00 98 1021.9
20260902112047 17 0.0 0.0 0.00 25.15 0.00 98 1021.8
20260902111050 16 0.0 0.0 0.00 25.15 0.00 98 1021.6
20260902110015 16 0.0 0.0 0.00 25.15 0.00 98 1021.4
20260902105019 16 0.0 0.0 0.00 25.15 0.00 98 1021.2
20260902104022 16 0.0 0.0 0.00 25.15 0.00 98 1021.2
20260902103025 16 0.0 0.0 0.00 25.15 0.00 98 1021.3
20260902102049 16 0.0 0.0 0.00 25.15 0.00 98 1021.3
20260902101106 16 0.0 0.0 0.00 25.15 0.00 98 1021.1
20260902100017 16 0.0 0.0 0.00 25.15 0.00 98 1020.9
20260902095021 16 0.0 0.0 0.00 25.15 0.00 98 1020.9
20260902094018 16 0.0 0.0 0.00 25.15 0.00 98 1020.8
20260902093015 16 0.0 0.0 0.00 25.15 0.00 98 1020.7
20260902092030 16 0.0 0.0 0.00 25.15 0.00 98 1020.7
20260902091016 16 0.0 0.0 0.00 25.15 0.00 98 1020.6
20260902090019 16 0.0 0.0 0.00 25.15 0.00 98 1020.5
20260902085022 16 0.0 0.0 0.00 25.15 0.00 98 1020.4
20260902084026 16 0.0 0.0 0.00 25.15 0.00 98 1020.7
20260902083029 16 0.0 0.0 0.00 25.15 0.00 98 1020.8
20260902082033 16 0.0 0.0 0.00 25.15 0.00 97 1020.8
20260902081018 16 0.0 0.0 0.00 25.15 0.00 97 1020.9
20260902080022 16 0.0 0.0 0.00 25.15 0.00 97 1020.9
20260902075024 16 0.0 0.0 0.00 25.15 0.00 97 1020.8
20260902074027 16 0.0 0.0 0.00 25.15 0.00 97 1020.9
20260902073031 16 0.0 0.0 0.00 25.15 0.00 97 1020.9
20260902072016 16 0.0 0.0 0.00 25.15 0.00 97 1020.7
20260902071019 16 0.0 0.0 0.00 25.15 0.00 97 1020.5
20260902070023 16 0.0 0.0 0.00 25.15 0.00 97 1020.6
20260902065026 16 0.0 0.0 0.00 25.15 0.00 97 1020.5
20260902064030 16 0.0 0.0 0.00 25.15 0.00 97 1020.6
20260902063035 16 0.0 0.0 0.00 25.15 0.00 97 1020.7
20260902062018 16 0.0 0.0 0.00 25.15 0.00 97 1020.6
20260902061042 16 0.0 0.0 0.00 25.15 0.00 97 1020.5
20260902060019 16 0.0 0.0 0.00 25.15 0.00 97 1020.7
20260902055016 16 0.0 0.0 0.00 25.15 0.00 97 1020.6
20260902054132 16 0.0 0.0 0.00 25.15 0.00 96 1020.5
20260902053016 16 0.0 0.0 0.00 25.15 0.00 96 1020.5
20260902052020 16 0.0 0.0 0.00 25.15 0.00 96 1020.4
20260902051023 16 0.0 0.0 0.00 25.15 0.00 96 1020.2
20260902050026 16 0.0 0.0 0.00 25.15 0.00 96 1019.9
20260902045050 16 0.0 0.0 0.00 25.15 0.00 96 1019.8
20260902044015 16 0.0 0.0 0.00 25.15 0.00 96 1019.7
20260902043018 16 0.0 0.0 0.00 25.15 0.00 95 1019.7
20260902042022 16 0.0 0.0 0.00 25.15 0.00 95 1019.7
20260902041025 16 0.0 0.0 0.00 25.15 0.00 95 1019.4
20260902040028 16 0.0 0.0 0.00 25.15 0.00 95 1019.2
20260902035112 16 0.0 0.0 0.00 25.15 25.15 95 1019.0
20260902034017 16 0.0 0.0 0.00 25.15 25.15 95 1019.1
20260902033020 16 0.0 0.0 0.00 25.15 25.15 95 1019.0
20260902032023 16 0.0 0.0 0.00 25.15 25.15 94 1018.9
20260902031047 16 0.0 0.0 25.15 25.15 25.15 94 1019.1
20260902030030 17 0.0 0.0 25.15 25.15 25.15 94 1019.2
20260902025015 17 0.0 0.0 25.15 25.15 25.15 94 1019.1
20260902024018 17 0.0 0.0 25.15 25.15 25.15 94 1019.2
20260902023022 17 0.0 0.0 25.15 25.15 25.15 94 1019.2
20260902022019 17 0.0 0.0 25.15 25.15 25.15 94 1019.1
20260902021016 17 0.0 0.0 0.00 0.00 0.00 94 1019.3
20260902020032 17 0.0 0.0 0.00 0.00 0.00 94 1019.3
20260902015017 17 0.0 0.0 0.00 0.00 0.00 93 1019.2
20260902014101 17 0.0 0.0 0.00 0.00 0.00 92 1019.3
20260902013024 17 0.0 0.0 0.00 0.00 0.00 91 1019.2
20260902012047 17 0.0 0.0 0.00 0.00 0.00 91 1019.1
20260902011030 17 0.0 0.0 0.00 0.00 0.00 91 1019.1
20260902010035 17 0.0 0.0 0.00 0.00 0.00 91 1019.1
20260902005019 17 0.0 0.0 0.00 0.00 0.00 91 1018.9
20260902004022 17 0.0 0.0 0.00 0.00 0.00 89 1018.8